Powrót do katalogu

OPS 4682 DEB

AktywnyPO
NORAD 38444·DEBRIS·🇺🇸 United States

Wystrzelony Apr 3, 1965 z Vandenberg Space Force Base

Loading…

Następne Przeloty (najbliższe 24 godziny)

TLE

ŚwieżeSource: Space-Track

Epoka: Sep 14, 2026, 14:56 UTC

1 38444U 65027EZ  26257.62229009  .00000560  00000-0  19337-2 0  9991
2 38444  90.2532  11.9832 0023419 309.2144  50.6897 12.96389214646019

Śledź OPS 4682 DEB w czasie rzeczywistym z AllMySat

Download on the App Store